Regional Weather Roundup
Issued by NWS

Home | Current Version | Previous Version | Graphics & Text | Print | Product List | Glossary On
Versions: 1 2 3 4 5 6 7 8 9 10 11 12 13 14 15 16 17 18 19 20 21 22 23 24 25 26 27 28 29 30 31 32 33 34 35 36 37 38 39 40 41 42 43 44 45 46 47 48
000
ASUS45 KCYS 011910
RWRWY

WYOMING REGIONAL WEATHER ROUNDUP
NATIONAL WEATHER SERVICE CHEYENNE WY
100 PM MDT TUE SEP 01 2015

NOTE:  "FAIR" INDICATES FEW OR NO CLOUDS BELOW 12,000 FEET
WITH NO SIGNIFICANT WEATHER AND/OR OBSTRUCTIONS TO VISIBILITY.

WYZ001-012000-
YELLOWSTONE NATIONAL PARK

CITY           SKY/WX    TMP DP  RH WIND       PRES   REMARKS
LK YELLOWSTONE   N/A     71  23  16 W9G21     30.19F
W YELLOWSTONE  NOT AVBL

$$
WYZ002>013-054>058-071-098>099-012000-
NORTHERN WYOMING

CITY           SKY/WX    TMP DP  RH WIND       PRES   REMARKS
JACKSON        FAIR      75  39  27 S7        30.09F
CODY           FAIR      82  30  15 SE3       29.94F
GREYBULL       FAIR      86  27  11 CALM      29.89F
WORLAND        FAIR      88  29  12 N5        29.90F
SHERIDAN       FAIR      91  26   9 N3        29.88F
BUFFALO        FAIR      86  29  12 E8        29.96F
GILLETTE       FAIR      86  29  12 W7        29.92F
HULETT         FAIR      84  37  18 W10       29.93F
NEWCASTLE        N/A     82  34  17 MISG      29.95S

$$
WYZ014>020-022>026-101>103-012000-
CENTRAL WYOMING

CITY           SKY/WX    TMP DP  RH WIND       PRES   REMARKS
BIG PINEY      FAIR      77  34  21 VRB6      30.15F
PINEDALE       FAIR      73  32  21 SW5       30.16F
DUBOIS         FAIR      75  28  17 NW12G22   30.12F
LANDER         FAIR      82  33  17 NE6       30.00F
RIVERTON       FAIR      80  32  17 VRB3      30.02F
CASPER         FAIR      87  30  13 W15G24    30.01F
DOUGLAS        FAIR      89  30  12 W18G28    30.00F

$$
WYZ021-027>030-104>119-012000-
SOUTHERN WYOMING

CITY           SKY/WX    TMP DP  RH WIND       PRES   REMARKS
EVANSTON       FAIR      78  35  21 W20G32    30.17F
KEMMERER       FAIR      79  28  15 SW24G35   30.17F
FORT BRIDGER   PTCLDY    82  34  17 SW20G30   30.19F
ROCK SPRINGS   FAIR      77  38  24 SW15G21   30.16F
DIXON          FAIR      79  45  29 SW14      30.21F
RAWLINS        FAIR      81  33  17 SW16G24   30.18F
SARATOGA       FAIR      79  32  18 SW14G21   30.21F
LARAMIE        FAIR      78  33  19 NW17G32   30.20F
CHEYENNE       FAIR      84  35  17 W13       30.12F
TORRINGTON     FAIR      91  41  17 VRB7      29.94F
PINE BLUFFS    FAIR      86  32  14 W8        30.05S

$$


USA.gov is the U.S. government's official web portal to all federal, state and local government web resources and services.